Year,Month,Day,Hour,Minute,Value (Times are PST for temperature in C)
2012,07,05,00,00,10.70
2012,07,05,00,01,10.60
2012,07,05,00,02,10.60
2012,07,05,00,03,10.60
2012,07,05,00,04,10.60
2012,07,05,00,05,10.50
2012,07,05,00,06,10.50
2012,07,05,00,07,10.50
2012,07,05,00,08,10.40
2012,07,05,00,09,10.40
2012,07,05,00,10,10.40
2012,07,05,00,11,10.40
2012,07,05,00,12,10.40
2012,07,05,00,13,10.30
2012,07,05,00,14,10.30
2012,07,05,00,15,10.30
2012,07,05,00,16,10.30
2012,07,05,00,17,10.30
2012,07,05,00,18,10.20
2012,07,05,00,19,10.20
2012,07,05,00,20,10.20
2012,07,05,00,21,10.20
2012,07,05,00,22,10.20
2012,07,05,00,23,10.20
2012,07,05,00,24,10.20
2012,07,05,00,25,10.20
2012,07,05,00,26,10.20
2012,07,05,00,27,10.20
2012,07,05,00,28,10.20
2012,07,05,00,29,10.20
2012,07,05,00,30,10.20
2012,07,05,00,31,10.20
2012,07,05,00,32,10.20
2012,07,05,00,33,10.20
2012,07,05,00,34,10.20
2012,07,05,00,35,10.20
2012,07,05,00,36,10.20
2012,07,05,00,37,10.20
2012,07,05,00,38,10.20
2012,07,05,00,39,10.20
2012,07,05,00,40,10.20
2012,07,05,00,41,10.10
2012,07,05,00,42,10.10
2012,07,05,00,43,10.10
2012,07,05,00,44,10.10
2012,07,05,00,45,10.10
2012,07,05,00,46,10.10
2012,07,05,00,47,10.10
2012,07,05,00,48,10.00
2012,07,05,00,49,10.00
2012,07,05,00,50,10.00
2012,07,05,00,51,10.00
2012,07,05,00,52,9.90
2012,07,05,00,53,9.90
2012,07,05,00,54,9.90
2012,07,05,00,55,9.90
2012,07,05,00,56,9.90
2012,07,05,00,57,9.90
2012,07,05,00,58,9.90
2012,07,05,00,59,9.80
2012,07,05,01,00,9.80
2012,07,05,01,01,9.80
2012,07,05,01,02,9.80
2012,07,05,01,03,9.80
2012,07,05,01,04,9.80
2012,07,05,01,05,9.80
2012,07,05,01,06,9.80
2012,07,05,01,07,9.70
2012,07,05,01,08,9.70
2012,07,05,01,09,9.70
2012,07,05,01,10,9.70
2012,07,05,01,11,9.70
2012,07,05,01,12,9.70
2012,07,05,01,13,9.60
2012,07,05,01,14,9.60
2012,07,05,01,15,9.60
2012,07,05,01,16,9.60
2012,07,05,01,17,9.60
2012,07,05,01,18,9.50
2012,07,05,01,19,9.50
2012,07,05,01,20,9.50
2012,07,05,01,21,9.40
2012,07,05,01,22,9.40
2012,07,05,01,23,9.40
2012,07,05,01,24,9.40
2012,07,05,01,25,9.40
2012,07,05,01,26,9.40
2012,07,05,01,27,9.40
2012,07,05,01,28,9.40
2012,07,05,01,29,9.40
2012,07,05,01,30,9.40
2012,07,05,01,31,9.40
2012,07,05,01,32,9.40
2012,07,05,01,33,9.30
2012,07,05,01,34,9.30
2012,07,05,01,35,9.30
2012,07,05,01,36,9.30
2012,07,05,01,37,9.30
2012,07,05,01,38,9.20
2012,07,05,01,39,9.20
2012,07,05,01,40,9.20
2012,07,05,01,41,9.20
2012,07,05,01,42,9.20
2012,07,05,01,43,9.20
2012,07,05,01,44,9.20
2012,07,05,01,45,9.20
2012,07,05,01,46,9.20
2012,07,05,01,47,9.10
2012,07,05,01,48,9.10
2012,07,05,01,49,9.10
2012,07,05,01,50,9.10
2012,07,05,01,51,9.10
2012,07,05,01,52,9.10
2012,07,05,01,53,9.10
2012,07,05,01,54,9.00
2012,07,05,01,55,9.00
2012,07,05,01,56,9.00
2012,07,05,01,57,9.00
2012,07,05,01,58,8.90
2012,07,05,01,59,8.90
2012,07,05,02,00,8.90
2012,07,05,02,01,8.90
2012,07,05,02,02,8.90
2012,07,05,02,03,8.90
2012,07,05,02,04,8.90
2012,07,05,02,05,8.90
2012,07,05,02,06,8.80
2012,07,05,02,07,8.80
2012,07,05,02,08,8.80
2012,07,05,02,09,8.80
2012,07,05,02,10,8.80
2012,07,05,02,11,8.80
2012,07,05,02,12,8.90
2012,07,05,02,13,8.90
2012,07,05,02,14,8.90
2012,07,05,02,15,8.90
2012,07,05,02,16,8.90
2012,07,05,02,17,8.90
2012,07,05,02,18,8.80
2012,07,05,02,19,8.80
2012,07,05,02,20,8.80
2012,07,05,02,21,8.80
2012,07,05,02,22,8.80
2012,07,05,02,23,8.80
2012,07,05,02,24,8.80
2012,07,05,02,25,8.80
2012,07,05,02,26,8.80
2012,07,05,02,27,8.70
2012,07,05,02,28,8.70
2012,07,05,02,29,8.70
2012,07,05,02,30,8.70
2012,07,05,02,31,8.70
2012,07,05,02,32,8.70
2012,07,05,02,33,8.70
2012,07,05,02,34,8.70
2012,07,05,02,35,8.70
2012,07,05,02,36,8.70
2012,07,05,02,37,8.70
2012,07,05,02,38,8.60
2012,07,05,02,39,8.60
2012,07,05,02,40,8.60
2012,07,05,02,41,8.60
2012,07,05,02,42,8.60
2012,07,05,02,43,8.50
2012,07,05,02,44,8.50
2012,07,05,02,45,8.50
2012,07,05,02,46,8.50
2012,07,05,02,47,8.50
2012,07,05,02,48,8.40
2012,07,05,02,49,8.40
2012,07,05,02,50,8.40
2012,07,05,02,51,8.40
2012,07,05,02,52,8.40
2012,07,05,02,53,8.40
2012,07,05,02,54,8.40
2012,07,05,02,55,8.30
2012,07,05,02,56,8.30
2012,07,05,02,57,8.30
2012,07,05,02,58,8.30
2012,07,05,02,59,8.30
2012,07,05,03,00,8.20
2012,07,05,03,01,8.20
2012,07,05,03,02,8.20
2012,07,05,03,03,8.20
2012,07,05,03,04,8.20
2012,07,05,03,05,8.20
2012,07,05,03,06,8.20
2012,07,05,03,07,8.20
2012,07,05,03,08,8.20
2012,07,05,03,09,8.20
2012,07,05,03,10,8.20
2012,07,05,03,11,8.10
2012,07,05,03,12,8.10
2012,07,05,03,13,8.10
2012,07,05,03,14,8.10
2012,07,05,03,15,8.10
2012,07,05,03,16,8.10
2012,07,05,03,17,8.00
2012,07,05,03,18,8.00
2012,07,05,03,19,8.00
2012,07,05,03,20,8.10
2012,07,05,03,21,8.10
2012,07,05,03,22,8.10
2012,07,05,03,23,8.10
2012,07,05,03,24,8.10
2012,07,05,03,25,8.10
2012,07,05,03,26,8.10
2012,07,05,03,27,8.10
2012,07,05,03,28,8.00
2012,07,05,03,29,8.00
2012,07,05,03,30,8.00
2012,07,05,03,31,7.90
2012,07,05,03,32,7.90
2012,07,05,03,33,7.90
2012,07,05,03,34,7.90
2012,07,05,03,35,7.90
2012,07,05,03,36,7.90
2012,07,05,03,37,7.90
2012,07,05,03,38,7.90
2012,07,05,03,39,7.90
2012,07,05,03,40,7.90
2012,07,05,03,41,7.90
2012,07,05,03,42,7.80
2012,07,05,03,43,7.80
2012,07,05,03,44,7.80
2012,07,05,03,45,7.80
2012,07,05,03,46,7.80
2012,07,05,03,47,7.80
2012,07,05,03,48,7.80
2012,07,05,03,49,7.80
2012,07,05,03,50,7.80
2012,07,05,03,51,7.80
2012,07,05,03,52,7.80
2012,07,05,03,53,7.80
2012,07,05,03,54,7.80
2012,07,05,03,55,7.70
2012,07,05,03,56,7.70
2012,07,05,03,57,7.70
2012,07,05,03,58,7.70
2012,07,05,03,59,7.70
2012,07,05,04,00,7.70
2012,07,05,04,01,7.70
2012,07,05,04,02,7.70
2012,07,05,04,03,7.70
2012,07,05,04,04,7.70
2012,07,05,04,05,7.70
2012,07,05,04,06,7.70
2012,07,05,04,07,7.70
2012,07,05,04,08,7.70
2012,07,05,04,09,7.70
2012,07,05,04,10,7.70
2012,07,05,04,11,7.70
2012,07,05,04,12,7.70
2012,07,05,04,13,7.70
2012,07,05,04,14,7.70
2012,07,05,04,15,7.60
2012,07,05,04,16,7.60
2012,07,05,04,17,7.60
2012,07,05,04,18,7.60
2012,07,05,04,19,7.60
2012,07,05,04,20,7.60
2012,07,05,04,21,7.60
2012,07,05,04,22,7.60
2012,07,05,04,23,7.60
2012,07,05,04,24,7.60
2012,07,05,04,25,7.70
2012,07,05,04,26,7.70
2012,07,05,04,27,7.70
2012,07,05,04,28,7.70
2012,07,05,04,29,7.70
2012,07,05,04,30,7.70
2012,07,05,04,31,7.60
2012,07,05,04,32,7.60
2012,07,05,04,33,7.60
2012,07,05,04,34,7.60
2012,07,05,04,35,7.60
2012,07,05,04,36,7.60
2012,07,05,04,37,7.50
2012,07,05,04,38,7.50
2012,07,05,04,39,7.50
2012,07,05,04,40,7.50
2012,07,05,04,41,7.50
2012,07,05,04,42,7.50
2012,07,05,04,43,7.50
2012,07,05,04,44,7.50
2012,07,05,04,45,7.50
2012,07,05,04,46,7.50
2012,07,05,04,47,7.50
2012,07,05,04,48,7.50
2012,07,05,04,49,7.50
2012,07,05,04,50,7.50
2012,07,05,04,51,7.50
2012,07,05,04,52,7.50
2012,07,05,04,53,7.50
2012,07,05,04,54,7.40
2012,07,05,04,55,7.40
2012,07,05,04,56,7.40
2012,07,05,04,57,7.40
2012,07,05,04,58,7.40
2012,07,05,04,59,7.30
2012,07,05,05,00,7.30
2012,07,05,05,01,7.30
2012,07,05,05,02,7.30
2012,07,05,05,03,7.20
2012,07,05,05,04,7.20
2012,07,05,05,05,7.20
2012,07,05,05,06,7.20
2012,07,05,05,07,7.20
2012,07,05,05,08,7.20
2012,07,05,05,09,7.20
2012,07,05,05,10,7.20
2012,07,05,05,11,7.20
2012,07,05,05,12,7.20
2012,07,05,05,13,7.20
2012,07,05,05,14,7.20
2012,07,05,05,15,7.10
2012,07,05,05,16,7.10
2012,07,05,05,17,7.10
2012,07,05,05,18,7.10
2012,07,05,05,19,7.10
2012,07,05,05,20,7.00
2012,07,05,05,21,7.00
2012,07,05,05,22,7.00
2012,07,05,05,23,7.00
2012,07,05,05,24,7.00
2012,07,05,05,25,7.00
2012,07,05,05,26,6.90
2012,07,05,05,27,7.00
2012,07,05,05,28,6.90
2012,07,05,05,29,6.90
2012,07,05,05,30,6.90
2012,07,05,05,31,6.90
2012,07,05,05,32,6.90
2012,07,05,05,33,6.90
2012,07,05,05,34,6.90
2012,07,05,05,35,6.90
2012,07,05,05,36,7.00
2012,07,05,05,37,7.00
2012,07,05,05,38,7.00
2012,07,05,05,39,7.10
2012,07,05,05,40,7.10
2012,07,05,05,41,7.10
2012,07,05,05,42,7.10
2012,07,05,05,43,7.10
2012,07,05,05,44,7.10
2012,07,05,05,45,7.10
2012,07,05,05,46,7.10
2012,07,05,05,47,7.10
2012,07,05,05,48,7.10
2012,07,05,05,49,7.10
2012,07,05,05,50,7.10
2012,07,05,05,51,7.10
2012,07,05,05,52,7.00
2012,07,05,05,53,7.00
2012,07,05,05,54,7.00
2012,07,05,05,55,7.00
2012,07,05,05,56,6.90
2012,07,05,05,57,6.90
2012,07,05,05,58,6.90
2012,07,05,05,59,6.90
2012,07,05,06,00,6.90
2012,07,05,06,01,6.90
2012,07,05,06,02,6.90
2012,07,05,06,03,6.90
2012,07,05,06,04,6.90
2012,07,05,06,05,6.90
2012,07,05,06,06,6.90
2012,07,05,06,07,6.90
2012,07,05,06,08,7.00
2012,07,05,06,09,7.00
2012,07,05,06,10,7.00
2012,07,05,06,11,7.00
2012,07,05,06,12,7.10
2012,07,05,06,13,7.10
2012,07,05,06,14,7.10
2012,07,05,06,15,7.10
2012,07,05,06,16,7.20
2012,07,05,06,17,7.20
2012,07,05,06,18,7.20
2012,07,05,06,19,7.20
2012,07,05,06,20,7.20
2012,07,05,06,21,7.20
2012,07,05,06,22,7.20
2012,07,05,06,23,7.20
2012,07,05,06,24,7.20
2012,07,05,06,25,7.20
2012,07,05,06,26,7.20
2012,07,05,06,27,7.30
2012,07,05,06,28,7.30
2012,07,05,06,29,7.30
2012,07,05,06,30,7.40
2012,07,05,06,31,7.40
2012,07,05,06,32,7.50
2012,07,05,06,33,7.50
2012,07,05,06,34,7.60
2012,07,05,06,35,7.60
2012,07,05,06,36,7.60
2012,07,05,06,37,7.60
2012,07,05,06,38,7.60
2012,07,05,06,39,7.70
2012,07,05,06,40,7.70
2012,07,05,06,41,7.70
2012,07,05,06,42,7.70
2012,07,05,06,43,7.70
2012,07,05,06,44,7.80
2012,07,05,06,45,7.80
2012,07,05,06,46,7.80
2012,07,05,06,47,7.80
2012,07,05,06,48,7.80
2012,07,05,06,49,7.90
2012,07,05,06,50,7.90
2012,07,05,06,51,8.00
2012,07,05,06,52,8.10
2012,07,05,06,53,8.10
2012,07,05,06,54,8.20
2012,07,05,06,55,8.30
2012,07,05,06,56,8.30
2012,07,05,06,57,8.40
2012,07,05,06,58,8.40
2012,07,05,06,59,8.50
2012,07,05,07,00,8.50
2012,07,05,07,01,8.60
2012,07,05,07,02,8.60
2012,07,05,07,03,8.60
2012,07,05,07,04,8.70
2012,07,05,07,05,8.70
2012,07,05,07,06,8.80
2012,07,05,07,07,8.90
2012,07,05,07,08,9.00
2012,07,05,07,09,9.10
2012,07,05,07,10,9.20
2012,07,05,07,11,9.30
2012,07,05,07,12,9.40
2012,07,05,07,13,9.60
2012,07,05,07,14,9.70
2012,07,05,07,15,9.90
2012,07,05,07,16,10.00
2012,07,05,07,17,10.10
2012,07,05,07,18,10.30
2012,07,05,07,19,10.40
2012,07,05,07,20,10.50
2012,07,05,07,21,10.70
2012,07,05,07,22,10.80
2012,07,05,07,23,10.90
2012,07,05,07,24,11.10
2012,07,05,07,25,11.20
2012,07,05,07,26,11.30
2012,07,05,07,27,11.50
2012,07,05,07,28,11.60
2012,07,05,07,29,11.80
2012,07,05,07,30,11.90
2012,07,05,07,31,12.10
2012,07,05,07,32,12.20
2012,07,05,07,33,12.40
2012,07,05,07,34,12.60
2012,07,05,07,35,12.70
2012,07,05,07,36,12.90
2012,07,05,07,37,13.10
2012,07,05,07,38,13.30
2012,07,05,07,39,13.40
2012,07,05,07,40,13.50
2012,07,05,07,41,13.70
2012,07,05,07,42,13.70
2012,07,05,07,43,13.80
2012,07,05,07,44,13.80
2012,07,05,07,45,14.00
2012,07,05,07,46,14.00
2012,07,05,07,47,14.10
2012,07,05,07,48,14.20
2012,07,05,07,49,14.30
2012,07,05,07,50,14.30
2012,07,05,07,51,14.40
2012,07,05,07,52,14.40
2012,07,05,07,53,14.50
2012,07,05,07,54,14.60
2012,07,05,07,55,14.70
2012,07,05,07,56,14.70
2012,07,05,07,57,14.80
2012,07,05,07,58,14.80
2012,07,05,07,59,14.80
2012,07,05,08,00,14.80
2012,07,05,08,01,14.80
2012,07,05,08,02,14.80
2012,07,05,08,03,14.80
2012,07,05,08,04,14.80
2012,07,05,08,05,14.90
2012,07,05,08,06,15.00
2012,07,05,08,07,15.00
2012,07,05,08,08,15.00
2012,07,05,08,09,15.00
2012,07,05,08,10,15.00
2012,07,05,08,11,15.00
2012,07,05,08,12,15.00
2012,07,05,08,13,15.00
2012,07,05,08,14,15.00
2012,07,05,08,15,15.10
2012,07,05,08,16,15.20
2012,07,05,08,17,15.30
2012,07,05,08,18,15.40
2012,07,05,08,19,15.40
2012,07,05,08,20,15.40
2012,07,05,08,21,15.50
2012,07,05,08,22,15.60
2012,07,05,08,23,15.60
2012,07,05,08,24,15.70
2012,07,05,08,25,15.70
2012,07,05,08,26,15.70
2012,07,05,08,27,15.70
2012,07,05,08,28,15.80
2012,07,05,08,29,15.80
2012,07,05,08,30,15.80
2012,07,05,08,31,15.80
2012,07,05,08,32,15.80
2012,07,05,08,33,15.90
2012,07,05,08,34,15.90
2012,07,05,08,35,15.90
2012,07,05,08,36,16.00
2012,07,05,08,37,16.10
2012,07,05,08,38,16.20
2012,07,05,08,39,16.20
2012,07,05,08,40,16.30
2012,07,05,08,41,16.40
2012,07,05,08,42,16.40
2012,07,05,08,43,16.50
2012,07,05,08,44,16.50
2012,07,05,08,45,16.60
2012,07,05,08,46,16.60
2012,07,05,08,47,16.60
2012,07,05,08,48,16.60
2012,07,05,08,49,16.70
2012,07,05,08,50,16.70
2012,07,05,08,51,16.70
2012,07,05,08,52,16.80
2012,07,05,08,53,16.80
2012,07,05,08,54,16.80
2012,07,05,08,55,16.80
2012,07,05,08,56,16.90
2012,07,05,08,57,16.80
2012,07,05,08,58,16.80
2012,07,05,08,59,16.70
2012,07,05,09,00,16.70
2012,07,05,09,01,16.70
2012,07,05,09,02,16.70
2012,07,05,09,03,16.70
2012,07,05,09,04,16.70
2012,07,05,09,05,16.80
2012,07,05,09,06,16.80
2012,07,05,09,07,16.80
2012,07,05,09,08,16.80
2012,07,05,09,09,16.80
2012,07,05,09,10,16.80
2012,07,05,09,11,16.90
2012,07,05,09,12,16.90
2012,07,05,09,13,16.90
2012,07,05,09,14,16.90
2012,07,05,09,15,17.00
2012,07,05,09,16,17.10
2012,07,05,09,17,17.20
2012,07,05,09,18,17.30
2012,07,05,09,19,17.40
2012,07,05,09,20,17.40
2012,07,05,09,21,17.50
2012,07,05,09,22,17.50
2012,07,05,09,23,17.60
2012,07,05,09,24,17.70
2012,07,05,09,25,17.80
2012,07,05,09,26,17.80
2012,07,05,09,27,17.80
2012,07,05,09,28,17.80
2012,07,05,09,29,17.90
2012,07,05,09,30,17.90
2012,07,05,09,31,17.90
2012,07,05,09,32,17.90
2012,07,05,09,33,17.90
2012,07,05,09,34,17.90
2012,07,05,09,35,17.90
2012,07,05,09,36,17.90
2012,07,05,09,37,17.80
2012,07,05,09,38,17.70
2012,07,05,09,39,17.70
2012,07,05,09,40,17.70
2012,07,05,09,41,17.70
2012,07,05,09,42,17.80
2012,07,05,09,43,17.80
2012,07,05,09,44,17.90
2012,07,05,09,45,17.90
2012,07,05,09,46,17.90
2012,07,05,09,47,17.90
2012,07,05,09,48,18.00
2012,07,05,09,49,18.10
2012,07,05,09,50,18.20
2012,07,05,09,51,18.30
2012,07,05,09,52,18.30
2012,07,05,09,53,18.30
2012,07,05,09,54,18.30
2012,07,05,09,55,18.30
2012,07,05,09,56,18.30
2012,07,05,09,57,18.30
2012,07,05,09,58,18.30
2012,07,05,09,59,18.40
2012,07,05,10,00,18.30
2012,07,05,10,01,18.30
2012,07,05,10,02,18.30
2012,07,05,10,03,18.30
2012,07,05,10,04,18.40
2012,07,05,10,05,18.50
2012,07,05,10,06,18.60
2012,07,05,10,07,18.70
2012,07,05,10,08,18.80
2012,07,05,10,09,18.80
2012,07,05,10,10,18.70
2012,07,05,10,11,18.60
2012,07,05,10,12,18.40
2012,07,05,10,13,18.20
2012,07,05,10,14,18.10
2012,07,05,10,15,18.10
2012,07,05,10,16,18.10
2012,07,05,10,17,18.10
2012,07,05,10,18,18.10
2012,07,05,10,19,18.10
2012,07,05,10,20,18.00
2012,07,05,10,21,17.90
2012,07,05,10,22,17.80
2012,07,05,10,23,17.90
2012,07,05,10,24,18.00
2012,07,05,10,25,18.10
2012,07,05,10,26,18.10
2012,07,05,10,27,18.10
2012,07,05,10,28,18.10
2012,07,05,10,29,18.10
2012,07,05,10,30,18.00
2012,07,05,10,31,17.90
2012,07,05,10,32,17.80
2012,07,05,10,33,17.80
2012,07,05,10,34,17.80
2012,07,05,10,35,17.90
2012,07,05,10,36,18.00
2012,07,05,10,37,18.20
2012,07,05,10,38,18.30
2012,07,05,10,39,18.30
2012,07,05,10,40,18.40
2012,07,05,10,41,18.50
2012,07,05,10,42,18.70
2012,07,05,10,43,18.70
2012,07,05,10,44,18.70
2012,07,05,10,45,18.60
2012,07,05,10,46,18.50
2012,07,05,10,47,18.40
2012,07,05,10,48,18.40
2012,07,05,10,49,18.30
2012,07,05,10,50,18.30
2012,07,05,10,51,18.40
2012,07,05,10,52,18.40
2012,07,05,10,53,18.40
2012,07,05,10,54,18.40
2012,07,05,10,55,18.50
2012,07,05,10,56,18.40
2012,07,05,10,57,18.50
2012,07,05,10,58,18.60
2012,07,05,10,59,18.50
2012,07,05,11,00,18.60
2012,07,05,11,01,18.50
2012,07,05,11,02,18.40
2012,07,05,11,03,18.30
2012,07,05,11,04,18.20
2012,07,05,11,05,18.10
2012,07,05,11,06,18.00
2012,07,05,11,07,18.00
2012,07,05,11,08,17.90
2012,07,05,11,09,17.80
2012,07,05,11,10,17.70
2012,07,05,11,11,17.70
2012,07,05,11,12,17.70
2012,07,05,11,13,17.70
2012,07,05,11,14,17.80
2012,07,05,11,15,17.80
2012,07,05,11,16,17.80
2012,07,05,11,17,17.80
2012,07,05,11,18,17.80
2012,07,05,11,19,17.70
2012,07,05,11,20,17.60
2012,07,05,11,21,17.60
2012,07,05,11,22,17.70
2012,07,05,11,23,17.80
2012,07,05,11,24,18.00
2012,07,05,11,25,18.10
2012,07,05,11,26,18.30
2012,07,05,11,27,18.40
2012,07,05,11,28,18.60
2012,07,05,11,29,18.70
2012,07,05,11,30,18.70
2012,07,05,11,31,18.80
2012,07,05,11,32,18.80
2012,07,05,11,33,18.70
2012,07,05,11,34,18.50
2012,07,05,11,35,18.40
2012,07,05,11,36,18.20
2012,07,05,11,37,18.10
2012,07,05,11,38,18.00
2012,07,05,11,39,18.00
2012,07,05,11,40,18.00
2012,07,05,11,41,18.10
2012,07,05,11,42,18.20
2012,07,05,11,43,18.30
2012,07,05,11,44,18.50
2012,07,05,11,45,18.70
2012,07,05,11,46,18.80
2012,07,05,11,47,18.90
2012,07,05,11,48,18.90
2012,07,05,11,49,18.80
2012,07,05,11,50,18.80
2012,07,05,11,51,18.70
2012,07,05,11,52,18.70
2012,07,05,11,53,18.70
2012,07,05,11,54,18.70
2012,07,05,11,55,18.80
2012,07,05,11,56,18.80
2012,07,05,11,57,18.80
2012,07,05,11,58,18.80
2012,07,05,11,59,18.70
2012,07,05,12,00,18.70
2012,07,05,12,01,18.60
2012,07,05,12,02,18.60
2012,07,05,12,03,18.60
2012,07,05,12,04,18.60
2012,07,05,12,05,18.60
2012,07,05,12,06,18.70
2012,07,05,12,07,18.80
2012,07,05,12,08,18.90
2012,07,05,12,09,19.10
2012,07,05,12,10,19.20
2012,07,05,12,11,19.20
2012,07,05,12,12,19.20
2012,07,05,12,13,19.20
2012,07,05,12,14,19.30
2012,07,05,12,15,19.30
2012,07,05,12,16,19.40
2012,07,05,12,17,19.40
2012,07,05,12,18,19.40
2012,07,05,12,19,19.40
2012,07,05,12,20,19.50
2012,07,05,12,21,19.50
2012,07,05,12,22,19.40
2012,07,05,12,23,19.30
2012,07,05,12,24,19.30
2012,07,05,12,25,19.20
2012,07,05,12,26,19.30
2012,07,05,12,27,19.30
2012,07,05,12,28,19.30
2012,07,05,12,29,19.40
2012,07,05,12,30,19.50
2012,07,05,12,31,19.60
2012,07,05,12,32,19.60
2012,07,05,12,33,19.60
2012,07,05,12,34,19.60
2012,07,05,12,35,19.70
2012,07,05,12,36,19.80
2012,07,05,12,37,19.70
2012,07,05,12,38,19.70
2012,07,05,12,39,19.70
2012,07,05,12,40,19.60
2012,07,05,12,41,19.50
2012,07,05,12,42,19.50
2012,07,05,12,43,19.60
2012,07,05,12,44,19.60
2012,07,05,12,45,19.70
2012,07,05,12,46,19.70
2012,07,05,12,47,19.70
2012,07,05,12,48,19.70
2012,07,05,12,49,19.70
2012,07,05,12,50,19.70
2012,07,05,12,51,19.70
2012,07,05,12,52,19.80
2012,07,05,12,53,19.90
2012,07,05,12,54,19.90
2012,07,05,12,55,20.00
2012,07,05,12,56,20.00
2012,07,05,12,57,20.00
2012,07,05,12,58,20.20
2012,07,05,12,59,20.30
2012,07,05,13,00,20.30
2012,07,05,13,01,20.30
2012,07,05,13,02,20.40
2012,07,05,13,03,20.30
2012,07,05,13,04,20.20
2012,07,05,13,05,20.20
2012,07,05,13,06,20.20
2012,07,05,13,07,20.10
2012,07,05,13,08,20.00
2012,07,05,13,09,19.70
2012,07,05,13,10,19.50
2012,07,05,13,11,19.30
2012,07,05,13,12,19.20
2012,07,05,13,13,19.10
2012,07,05,13,14,19.00
2012,07,05,13,15,18.90
2012,07,05,13,16,18.90
2012,07,05,13,17,18.90
2012,07,05,13,18,18.90
2012,07,05,13,19,18.80
2012,07,05,13,20,18.90
2012,07,05,13,21,19.00
2012,07,05,13,22,19.00
2012,07,05,13,23,19.00
2012,07,05,13,24,19.00
2012,07,05,13,25,19.00
2012,07,05,13,26,18.90
2012,07,05,13,27,18.90
2012,07,05,13,28,19.00
2012,07,05,13,29,19.10
2012,07,05,13,30,19.20
2012,07,05,13,31,19.20
2012,07,05,13,32,19.30
2012,07,05,13,33,19.30
2012,07,05,13,34,19.30
2012,07,05,13,35,19.30
2012,07,05,13,36,19.40
2012,07,05,13,37,19.50
2012,07,05,13,38,19.40
2012,07,05,13,39,19.30
2012,07,05,13,40,19.30
2012,07,05,13,41,19.20
2012,07,05,13,42,19.10
2012,07,05,13,43,19.10
2012,07,05,13,44,19.00
2012,07,05,13,45,19.10
2012,07,05,13,46,19.00
2012,07,05,13,47,19.00
2012,07,05,13,48,19.00
2012,07,05,13,49,19.10
2012,07,05,13,50,19.20
2012,07,05,13,51,19.30
2012,07,05,13,52,19.50
2012,07,05,13,53,19.70
2012,07,05,13,54,19.80
2012,07,05,13,55,19.80
2012,07,05,13,56,19.90
2012,07,05,13,57,19.80
2012,07,05,13,58,19.70
2012,07,05,13,59,19.70
2012,07,05,14,00,19.70
2012,07,05,14,01,19.70
2012,07,05,14,02,19.80
2012,07,05,14,03,19.80
2012,07,05,14,04,19.80
2012,07,05,14,05,19.70
2012,07,05,14,06,19.60
2012,07,05,14,07,19.50
2012,07,05,14,08,19.40
2012,07,05,14,09,19.20
2012,07,05,14,10,19.20
2012,07,05,14,11,19.20
2012,07,05,14,12,19.20
2012,07,05,14,13,19.20
2012,07,05,14,14,19.20
2012,07,05,14,15,19.20
2012,07,05,14,16,19.40
2012,07,05,14,17,19.40
2012,07,05,14,18,19.40
2012,07,05,14,19,19.30
2012,07,05,14,20,19.30
2012,07,05,14,21,19.30
2012,07,05,14,22,19.40
2012,07,05,14,23,19.30
2012,07,05,14,24,19.30
2012,07,05,14,25,19.30
2012,07,05,14,26,19.30
2012,07,05,14,27,19.40
2012,07,05,14,28,19.40
2012,07,05,14,29,19.40
2012,07,05,14,30,19.40
2012,07,05,14,31,19.30
2012,07,05,14,32,19.30
2012,07,05,14,33,19.20
2012,07,05,14,34,19.20
2012,07,05,14,35,19.20
2012,07,05,14,36,19.10
2012,07,05,14,37,19.10
2012,07,05,14,38,19.20
2012,07,05,14,39,19.20
2012,07,05,14,40,19.20
2012,07,05,14,41,19.10
2012,07,05,14,42,19.30
2012,07,05,14,43,19.30
2012,07,05,14,44,19.20
2012,07,05,14,45,19.30
2012,07,05,14,46,19.40
2012,07,05,14,47,19.60
2012,07,05,14,48,19.60
2012,07,05,14,49,19.70
2012,07,05,14,50,19.60
2012,07,05,14,51,19.50
2012,07,05,14,52,19.40
2012,07,05,14,53,19.40
2012,07,05,14,54,19.40
2012,07,05,14,55,19.40
2012,07,05,14,56,19.50
2012,07,05,14,57,19.60
2012,07,05,14,58,19.60
2012,07,05,14,59,19.60
2012,07,05,15,00,19.70
2012,07,05,15,01,19.70
2012,07,05,15,02,19.70
2012,07,05,15,03,19.70
2012,07,05,15,04,19.70
2012,07,05,15,05,19.70
2012,07,05,15,06,19.80
2012,07,05,15,07,19.80
2012,07,05,15,08,19.80
2012,07,05,15,09,19.90
2012,07,05,15,10,19.90
2012,07,05,15,11,19.80
2012,07,05,15,12,19.90
2012,07,05,15,13,19.90
2012,07,05,15,14,19.90
2012,07,05,15,15,19.90
2012,07,05,15,16,19.90
2012,07,05,15,17,19.80
2012,07,05,15,18,19.70
2012,07,05,15,19,19.80
2012,07,05,15,20,19.70
2012,07,05,15,21,19.70
2012,07,05,15,22,19.60
2012,07,05,15,23,19.70
2012,07,05,15,24,19.80
2012,07,05,15,25,19.80
2012,07,05,15,26,19.90
2012,07,05,15,27,19.90
2012,07,05,15,28,19.80
2012,07,05,15,29,19.80
2012,07,05,15,30,19.80
2012,07,05,15,31,19.90
2012,07,05,15,32,19.90
2012,07,05,15,33,20.10
2012,07,05,15,34,20.30
2012,07,05,15,35,20.40
2012,07,05,15,36,20.40
2012,07,05,15,37,20.50
2012,07,05,15,38,20.50
2012,07,05,15,39,20.40
2012,07,05,15,40,20.40
2012,07,05,15,41,20.40
2012,07,05,15,42,20.40
2012,07,05,15,43,20.50
2012,07,05,15,44,20.50
2012,07,05,15,45,20.50
2012,07,05,15,46,20.30
2012,07,05,15,47,20.20
2012,07,05,15,48,20.10
2012,07,05,15,49,20.10
2012,07,05,15,50,20.10
2012,07,05,15,51,20.00
2012,07,05,15,52,19.80
2012,07,05,15,53,19.80
2012,07,05,15,54,19.90
2012,07,05,15,55,20.00
2012,07,05,15,56,20.10
2012,07,05,15,57,20.10
2012,07,05,15,58,20.20
2012,07,05,15,59,20.20
2012,07,05,16,00,20.20
2012,07,05,16,01,20.20
2012,07,05,16,02,20.30
2012,07,05,16,03,20.40
2012,07,05,16,04,20.50
2012,07,05,16,05,20.60
2012,07,05,16,06,20.60
2012,07,05,16,07,20.60
2012,07,05,16,08,20.70
2012,07,05,16,09,20.80
2012,07,05,16,10,20.80
2012,07,05,16,11,20.80
2012,07,05,16,12,20.80
2012,07,05,16,13,20.80
2012,07,05,16,14,20.70
2012,07,05,16,15,20.70
2012,07,05,16,16,20.70
2012,07,05,16,17,20.70
2012,07,05,16,18,20.80
2012,07,05,16,19,20.80
2012,07,05,16,20,20.90
2012,07,05,16,21,20.90
2012,07,05,16,22,20.90
2012,07,05,16,23,20.90
2012,07,05,16,24,20.90
2012,07,05,16,25,20.80
2012,07,05,16,26,20.70
2012,07,05,16,27,20.70
2012,07,05,16,28,20.70
2012,07,05,16,29,20.80
2012,07,05,16,30,20.90
2012,07,05,16,31,20.90
2012,07,05,16,32,21.00
2012,07,05,16,33,21.00
2012,07,05,16,34,21.00
2012,07,05,16,35,21.00
2012,07,05,16,36,21.00
2012,07,05,16,37,21.00
2012,07,05,16,38,20.90
2012,07,05,16,39,21.00
2012,07,05,16,40,21.00
2012,07,05,16,41,21.20
2012,07,05,16,42,21.30
2012,07,05,16,43,21.40
2012,07,05,16,44,21.60
2012,07,05,16,45,21.70
2012,07,05,16,46,21.70
2012,07,05,16,47,21.60
2012,07,05,16,48,21.50
2012,07,05,16,49,21.50
2012,07,05,16,50,21.40
2012,07,05,16,51,21.40
2012,07,05,16,52,21.40
2012,07,05,16,53,21.50
2012,07,05,16,54,21.60
2012,07,05,16,55,21.60
2012,07,05,16,56,21.50
2012,07,05,16,57,21.40
2012,07,05,16,58,21.30
2012,07,05,16,59,21.30
2012,07,05,17,00,21.30
2012,07,05,17,01,21.30
2012,07,05,17,02,21.20
2012,07,05,17,03,21.10
2012,07,05,17,04,21.10
2012,07,05,17,05,21.00
2012,07,05,17,06,21.10
2012,07,05,17,07,21.10
2012,07,05,17,08,21.10
2012,07,05,17,09,21.10
2012,07,05,17,10,21.20
2012,07,05,17,11,21.10
2012,07,05,17,12,21.20
2012,07,05,17,13,21.10
2012,07,05,17,14,21.20
2012,07,05,17,15,21.20
2012,07,05,17,16,21.30
2012,07,05,17,17,21.40
2012,07,05,17,18,21.50
2012,07,05,17,19,21.50
2012,07,05,17,20,21.50
2012,07,05,17,21,21.40
2012,07,05,17,22,21.40
2012,07,05,17,23,21.50
2012,07,05,17,24,21.50
2012,07,05,17,25,21.50
2012,07,05,17,26,21.50
2012,07,05,17,27,21.50
2012,07,05,17,28,21.50
2012,07,05,17,29,21.40
2012,07,05,17,30,21.50
2012,07,05,17,31,21.60
2012,07,05,17,32,21.70
2012,07,05,17,33,21.70
2012,07,05,17,34,21.70
2012,07,05,17,35,21.70
2012,07,05,17,36,21.70